Regional Weather Roundup
Issued by NWS

Home | Current Version | Previous Version | Text Only | Print | Product List | Glossary Off
Versions: 1 2 3 4 5 6 7 8 9 10 11 12 13 14 15 16 17 18 19 20 21 22 23 24 25 26 27 28 29 30 31 32 33 34 35 36 37 38 39 40 41 42 43 44 45 46 47 48 49 50

000
ASUS43 KLMK 241802
RWRKY
KENTUCKY REGIONAL WEATHER ROUNDUP
NATIONAL WEATHER SERVICE LOUISVILLE KY
200 PM EDT FRI OCT 24 2014

NOTE "FAIR" INDICATES FEW OR NO CLOUDS BELOW 12,000 FEET
WITH NO SIGNIFICANT WEATHER AND/OR OBSTRUCTIONS TO VISIBILITY.

KYZ001>023-026-027-061>063-070>075-241900-
WESTERN AND SOUTH CENTRAL KENTUCKY

CITY           SKY/WX    TMP DP  RH WIND       PRES   REMARKS
PADUCAH        SUNNY     68  54  60 NW7       30.10F
HENDERSON      SUNNY    N/A N/A N/A SW3       30.09F
OWENSBORO      SUNNY     66  45  46 SE6       30.10F
HOPKINSVILLE   PTSUNNY   65  42  43 VRB2      30.11F
BOWLING GREEN  PTSUNNY   63  43  48 CALM      30.11F
GLASGOW        SUNNY     66  39  37 CALM      30.10F
$$

KYZ024-025-028>034-038-045-046-053-241900-
NORTH CENTRAL KENTUCKY

CITY           SKY/WX    TMP DP  RH WIND       PRES   REMARKS
LOUISVILLE/SDF MOSUNNY   65  43  44 SW12      30.09F
LOUISVILLE/LOU SUNNY     63  42  46 VRB5      30.10F
FORT KNOX      PTSUNNY   63  43  48 SW6       30.08F
$$

KYZ035>037-039>044-047>052-055>060-089>105-241900-
NORTHEAST KENTUCKY

CITY           SKY/WX    TMP DP  RH WIND       PRES   REMARKS
LEXINGTON      SUNNY     63  44  50 VRB6      30.10F
COVINGTON      SUNNY     63  40  42 CALM      30.08F
FRANKFORT      SUNNY     61  42  49 CALM      30.08F
$$

KYZ054-064>069-076>088-106>120-241900-
SOUTHEAST KENTUCKY

CITY           SKY/WX    TMP DP  RH WIND       PRES   REMARKS
JACKSON        PTSUNNY   58  44  60 CALM      30.09F
LONDON         MOSUNNY   62  43  49 W5        30.09F
SOMERSET       MOSUNNY   61  41  48 N3        30.10F
MIDDLESBORO    MOSUNNY   62  43  49 CALM      30.09F
MONTICELLO     CLEAR     65  42  43 VRB7      30.11F
$$




USA.gov is the U.S. government's official web portal to all federal, state and local government web resources and services.